When you browse on this site, cookies collect data to enhance your experience and personalize the content and advertising you see.
Visit our Privacy Policy to learn more. By continuing to use the site, you agree to this use of cookies and data.
  • In Germany
  • List of Countries
  • For 7 days
  • Water Temperature
  • Satellite Maps
  • Weather Map
  • Weather Widgets
  • user-avatar
    Login

    Hourly Weather Grebcovo

    Today, 18 November, Sunday

    Time Temperature Precipitation Wind Pressure Humidity
    00:00 -5°C° 0 mm 2 mps 771 mmHg 80%
    01:00 -5°C° 0 mm 2 mps 771 mmHg 80%
    02:00 -5°C° 0 mm 2 mps 770 mmHg 80%
    03:00 -5°C° 0 mm 2 mps 770 mmHg 80%
    04:00 -5°C° 0 mm 2 mps 770 mmHg 80%
    05:00 -5°C° 0 mm 2 mps 770 mmHg 81%
    06:00 -5°C° 0 mm 2 mps 769 mmHg 81%
    07:00 -4°C° 0 mm 2 mps 769 mmHg 81%
    08:00 -2°C° 0 mm 1 mps 769 mmHg 81%
    09:00 -2°C° 0 mm 1 mps 769 mmHg 81%
    10:00 -1°C° 0 mm 1 mps 769 mmHg 80%
    11:00 0°C° 0 mm 1 mps 769 mmHg 79%
    12:00 +1°C° 0 mm 1 mps 769 mmHg 78%
    13:00 +1°C° 0 mm 1 mps 768 mmHg 80%
    14:00 +1°C° 0 mm 1 mps 768 mmHg 82%
    15:00 +1°C° 0 mm 1 mps 768 mmHg 85%
    16:00 +1°C° 0 mm 1 mps 768 mmHg 86%
    17:00 0°C° 0 mm 1 mps 768 mmHg 88%
    18:00 -1°C° 0 mm 1 mps 768 mmHg 89%
    19:00 -1°C° 0 mm 1 mps 768 mmHg 90%
    20:00 -1°C° 0 mm 1 mps 768 mmHg 91%
    21:00 -1°C° 0 mm 1 mps 768 mmHg 91%
    22:00 0°C° 0 mm 1 mps 768 mmHg 92%
    23:00 0°C° 0 mm 1 mps 768 mmHg 93%

    Tomorrow, 19 November, Monday

    Time Temperature Precipitation Wind Pressure Humidity
    00:00 0°C° 0 mm 1 mps 768 mmHg 93%
    01:00 -2°C° 0 mm 2 mps 768 mmHg 94%
    02:00 -2°C° 0 mm 2 mps 768 mmHg 94%
    03:00 -2°C° 0 mm 2 mps 767 mmHg 94%
    04:00 -2°C° 0 mm 2 mps 767 mmHg 95%
    05:00 -2°C° 0 mm 2 mps 767 mmHg 95%
    06:00 -2°C° 0 mm 2 mps 767 mmHg 95%
    07:00 -1°C° 0 mm 3 mps 767 mmHg 95%
    08:00 -1°C° 0 mm 3 mps 767 mmHg 95%
    09:00 0°C° 0 mm 3 mps 767 mmHg 95%
    10:00 -1°C° 0 mm 4 mps 767 mmHg 96%
    11:00 -1°C° 0 mm 4 mps 767 mmHg 97%
    12:00 0°C° 0 mm 4 mps 767 mmHg 98%
    13:00 0°C° 0 mm 4 mps 767 mmHg 98%
    14:00 0°C° 0 mm 4 mps 766 mmHg 98%
    15:00 0°C° 0 mm 4 mps 766 mmHg 98%
    16:00 0°C° 0 mm 4 mps 766 mmHg 98%
    17:00 0°C° 0 mm 4 mps 766 mmHg 97%
    18:00 0°C° 0 mm 5 mps 766 mmHg 97%
    19:00 0°C° 0.2 mm 5 mps 765 mmHg 96%
    20:00 0°C° 0.2 mm 5 mps 765 mmHg 95%
    21:00 +1°C° 0.2 mm 5 mps 765 mmHg 94%
    22:00 +1°C° 0.5 mm 5 mps 765 mmHg 95%
    23:00 +1°C° 0.5 mm 5 mps 765 mmHg 95%

    Day after tomorrow, 20 November, Tuesday

    Time Temperature Precipitation Wind Pressure Humidity
    00:00 +1°C° 0.5 mm 5 mps 765 mmHg 95%
    01:00 +1°C° 0.4 mm 6 mps 764 mmHg 95%
    02:00 +1°C° 0.4 mm 6 mps 764 mmHg 95%
    03:00 +1°C° 0.4 mm 6 mps 763 mmHg 96%
    04:00 +1°C° 1.5 mm 6 mps 763 mmHg 96%
    05:00 +1°C° 1.5 mm 6 mps 763 mmHg 96%
    06:00 +1°C° 1.5 mm 6 mps 762 mmHg 96%
    07:00 +1°C° 0.7 mm 6 mps 762 mmHg 95%
    08:00 +1°C° 0.7 mm 6 mps 762 mmHg 95%
    09:00 0°C° 0.7 mm 7 mps 762 mmHg 95%
    10:00 +2°C° 0.2 mm 6 mps 762 mmHg 96%
    11:00 +2°C° 0.2 mm 5 mps 761 mmHg 96%
    12:00 +2°C° 0.2 mm 5 mps 761 mmHg 97%
    13:00 +4°C° 0.3 mm 4 mps 761 mmHg 96%
    14:00 +4°C° 0.3 mm 4 mps 760 mmHg 95%
    15:00 +5°C° 0.3 mm 3 mps 760 mmHg 93%
    16:00 +5°C° 0.7 mm 3 mps 760 mmHg 94%
    17:00 +4°C° 0.7 mm 3 mps 760 mmHg 95%
    18:00 +4°C° 0.7 mm 3 mps 760 mmHg 96%
    19:00 +4°C° 0.3 mm 3 mps 761 mmHg 96%
    20:00 +4°C° 0.3 mm 3 mps 761 mmHg 96%
    21:00 +4°C° 0.3 mm 4 mps 761 mmHg 96%
    22:00 +4°C° 0 mm 4 mps 761 mmHg 96%
    23:00 +3°C° 0 mm 4 mps 761 mmHg 95%

    21 November, Wednesday

    Time Temperature Precipitation Wind Pressure Humidity
    00:00 +3°C° 0 mm 4 mps 762 mmHg 95%
    01:00 +3°C° 0 mm 4 mps 762 mmHg 94%
    02:00 +1°C° 0 mm 4 mps 762 mmHg 94%
    03:00 +2°C° 0 mm 3 mps 763 mmHg 93%
    04:00 +2°C° 0 mm 3 mps 763 mmHg 93%
    05:00 +2°C° 0 mm 3 mps 763 mmHg 93%
    06:00 +1°C° 0 mm 3 mps 763 mmHg 93%
    07:00 +1°C° 0 mm 3 mps 763 mmHg 92%
    08:00 +1°C° 0 mm 3 mps 764 mmHg 91%
    09:00 +1°C° 0 mm 3 mps 764 mmHg 90%
    10:00 +2°C° 0 mm 3 mps 764 mmHg 89%
    11:00 +2°C° 0 mm 3 mps 764 mmHg 87%
    12:00 +3°C° 0 mm 3 mps 764 mmHg 86%
    13:00 +3°C° 0 mm 3 mps 764 mmHg 86%
    14:00 +3°C° 0 mm 3 mps 764 mmHg 85%
    15:00 +3°C° 0 mm 3 mps 764 mmHg 85%
    16:00 +2°C° 0 mm 3 mps 764 mmHg 86%
    17:00 +2°C° 0 mm 3 mps 764 mmHg 86%
    18:00 +1°C° 0 mm 4 mps 764 mmHg 87%
    19:00 +1°C° 0 mm 4 mps 764 mmHg 86%
    20:00 0°C° 0 mm 4 mps 764 mmHg 85%
    21:00 0°C° 0 mm 4 mps 764 mmHg 85%
    22:00 0°C° 0 mm 4 mps 764 mmHg 84%
    23:00 0°C° 0 mm 4 mps 764 mmHg 83%

    22 November, Thursday

    Time Temperature Precipitation Wind Pressure Humidity
    00:00 0°C° 0 mm 4 mps 764 mmHg 82%
    01:00 0°C° 0 mm 4 mps 764 mmHg 81%
    02:00 0°C° 0 mm 4 mps 764 mmHg 80%
    03:00 -1°C° 0 mm 4 mps 764 mmHg 79%
    04:00 -1°C° 0 mm 4 mps 764 mmHg 78%
    05:00 -1°C° 0 mm 4 mps 764 mmHg 78%
    06:00 -2°C° 0 mm 4 mps 764 mmHg 77%
    07:00 -2°C° 0 mm 5 mps 764 mmHg 77%
    08:00 -2°C° 0 mm 5 mps 765 mmHg 76%
    09:00 -2°C° 0 mm 5 mps 765 mmHg 75%
    10:00 -1°C° 0 mm 5 mps 765 mmHg 73%
    11:00 -1°C° 0 mm 5 mps 765 mmHg 71%
    12:00 0°C° 0 mm 5 mps 765 mmHg 69%
    13:00 0°C° 0 mm 5 mps 765 mmHg 69%
    14:00 0°C° 0 mm 5 mps 765 mmHg 69%
    15:00 0°C° 0 mm 4 mps 765 mmHg 68%
    16:00 -1°C° 0 mm 4 mps 765 mmHg 72%
    17:00 -2°C° 0 mm 4 mps 765 mmHg 75%
    18:00 -3°C° 0 mm 4 mps 765 mmHg 78%
    19:00 -3°C° 0 mm 4 mps 766 mmHg 79%
    20:00 -3°C° 0 mm 4 mps 766 mmHg 80%
    21:00 -3°C° 0 mm 4 mps 766 mmHg 80%
    22:00 -4°C° 0 mm 4 mps 766 mmHg 80%
    23:00 -4°C° 0 mm 3 mps 767 mmHg 80%

    23 November, Friday

    Time Temperature Precipitation Wind Pressure Humidity
    00:00 -4°C° 0 mm 3 mps 767 mmHg 79%
    01:00 -4°C° 0 mm 3 mps 767 mmHg 79%
    02:00 -4°C° 0 mm 3 mps 767 mmHg 78%
    03:00 -4°C° 0 mm 3 mps 767 mmHg 78%
    04:00 -4°C° 0 mm 3 mps 767 mmHg 77%
    05:00 -4°C° 0 mm 3 mps 767 mmHg 76%
    06:00 -4°C° 0 mm 3 mps 767 mmHg 76%
    07:00 -4°C° 0 mm 3 mps 768 mmHg 75%
    08:00 -4°C° 0 mm 3 mps 768 mmHg 74%
    09:00 -4°C° 0 mm 3 mps 769 mmHg 74%
    10:00 -2°C° 0 mm 3 mps 769 mmHg 71%
    11:00 -1°C° 0 mm 3 mps 769 mmHg 69%
    12:00 0°C° 0 mm 3 mps 769 mmHg 66%
    13:00 0°C° 0 mm 3 mps 769 mmHg 67%
    14:00 0°C° 0 mm 3 mps 769 mmHg 68%
    15:00 0°C° 0 mm 3 mps 769 mmHg 69%
    16:00 0°C° 0 mm 3 mps 769 mmHg 73%
    17:00 -1°C° 0 mm 3 mps 770 mmHg 78%
    18:00 -2°C° 0 mm 3 mps 770 mmHg 83%
    19:00 -2°C° 0 mm 3 mps 770 mmHg 84%
    20:00 -4°C° 0 mm 3 mps 770 mmHg 84%
    21:00 -4°C° 0 mm 3 mps 770 mmHg 85%
    22:00 -4°C° 0 mm 3 mps 770 mmHg 85%
    23:00 -4°C° 0 mm 3 mps 770 mmHg 85%
    Show more